Location: Arrien
(43.3167°N, 0.1500°W)
Time: 17:29:38
(UTC+00:00)

Cosmos 2082 - Pass Details

Date: 22 May 2022
Orbit: 835 x 853 km, 71.0° (Epoch: 01 July)

Event Time Altitude Azimuth Distance (km) Brightness Sun altitude
Rises 20:48:43 0° 340° (NNW) 3,403 8.1 -12.9°
Reaches altitude 10° 20:51:20 10° 348° (NNW) 2,462 7.0 -13.2°
Maximum altitude 20:56:38 40° 58° (ENE) 1,219 4.4 -13.9°
Enters shadow 21:00:11 19° 117° (ESE) 1,885 5.0 -14.3°
